www.pogodaiklimat.ru

Погода и климат >> Архив погоды >> Нидерланды >> Де Билт


АРХИВ ПОГОДЫ в Де Билте

Время (UTC), дата Ветер
(напр.,м/с)
 
Видим.   Явления Облачность Т
(С)
Тd
(С)
f
(%)
Тe
(С)
Тes
(С)
Комфортность P
(гПа)
Po
(гПа)
Тmin
(С)
Tmax
(С)
R
(мм)
R24
(мм)
S
(см)
01 10.06 СВ 3-5
{5}
30 км слаб. ливневой дождь 10/10 1500 м
[]
+14.3 +10.8 79 +13 +13 1017.4 1017.1
02 10.06 СВ 4-6
{6}
45 км в посл. час дождь {ливн. осадки, морось} 10/10 1500 м
[]
+14.1 +10.2 77 +13 +13 1016.7 1016.4
03 10.06 С 4-6
{7}
45 км {ливн. осадки, морось} 10/10 1500 м
[]
+14.1 +10.0 76 +13 +13 1015.9 1015.5
04 10.06 СВ 3 45 км {ливн. осадки, морось} 10/10 1500 м
[]
+14.1 +10.0 76 +13 +13 1015.6 1015.2
05 10.06 СВ 4 45 км {ливн. осадки, морось} 4/4
[]
+13.8 +10.1 78 +12 +13 1015.0 1014.7
06 10.06 СВ 4-7
{7}
40 км {ливн. осадки, морось} 10/10
[]
+16.4 +10.6 69 +16 +16 1014.8 1014.5 +13.7
07 10.06 СВ 6 40 км 8/8
[]
+17.1 +10.7 66 +16 +17 1014.3 1014.0
08 10.06 СВ 5 35 км 3/3
[]
+18.4 +11.6 65 +18 +22 1013.8 1013.5
09 10.06 В 6 30 км ясно +19.6 +11.9 61 +21 +26 комфорт 1013.4 1013.0
10 10.06 СВ 6 35 км 9/9
[]
+20.8 +12.9 61 +23 +24 комфорт 1012.6 1012.3
11 10.06 СВ 5 35 км 9/9
[]
+21.0 +13.1 61 +24 +25 комфорт 1012.1 1011.7
12 10.06 СВ 5-7
{9}
30 км 8/4 2000 м
[]
+21.6 +13.9 62 +24 +26 комфорт 1011.2 1010.8
13 10.06 В 4 40 км в посл. час дождь {ливн. осадки} 10/10 1500 м
[]
+20.9 +13.3 62 +24 +24 комфорт 1010.8 1010.5
14 10.06 СВ 3 27 км слаб. ливневой дождь 10/10 1500 м
[]
+20.4 +13.3 64 +23 +23 комфорт 1010.4 1010.1
15 10.06 С 1-3
{5}
35 км в посл. час дождь 10/5
[]
+22.0 +13.6 59 +25 +25 комфорт 1009.9 1009.6
16 10.06 З 1 35 км гроза, ливневой дождь 10/8 1000 м
[]
+21.6 +15.0 66 +25 +26 комфорт 1009.5 1009.1
17 10.06 З 2 35 км гроза без осадков {ливн. осадки} 10/10
[]
+20.7 +14.3 67 +24 +24 комфорт 1009.1 1008.8
18 10.06 СВ 2-3
{4}
45 км в посл. час гроза без осадков {ливн. осадки} 10/10
[]
+19.0 +13.1 69 +21 +21 комфорт 1009.6 1009.1 +22.4
19 10.06 СЗ 1 40 км 10/10
[]
+17.9 +14.5 80 +19 +19 1009.7 1009.2
20 10.06 Ю 4 45 км слаб. ливневой дождь 10/10 1500 м
[]
+18.4 +12.8 70 +19 +19 1010.4 1009.9
21 10.06 З 3-4
{10}
45 км слаб. дождь 10/10 1320 м
[]
+15.0 +12.7 86 +14 +14 1010.1 1009.7 0.6
22 10.06 ЮЗ 1-2
{3}
19 км в посл. час дождь {ливн. осадки} 10/10 2000 м
[]
+15.0 +14.0 94 +15 +15 1010.2 1009.8
23 10.06 ЮЗ 2-4
{4}
13 км {ливн. осадки, дождь} 10/10
[]
+14.9 +14.1 95 +15 +15 1009.9 1009.4
00 11.06 ЮЗ 3-4
{4}
8000 м дымка {ливн. осадки, дождь} 10/10 150 м
[]
+15.4 +14.7 96 +15 +15 1010.2 1009.8
01 11.06 ЮЗ 1-2
{3}
10 км 10/10 2000 м
[]
+15.1 +14.2 94 +16 +16 1010.2 1009.7
02 11.06 ЮЗ 3-5
{6}
6000 м дымка 10/9 300 м
[]
+15.3 +14.2 93 +15 +15 1010.3 1009.9
03 11.06 ЮЗ 4-7
{7}
9000 м дымка 10/10 210 м
[]
+14.3 +13.1 92 +13 +13 1010.3 1009.9
04 11.06 ЮЗ 4 20 км 10/10 300 м
[]
+13.7 +11.1 84 +12 +12 1010.3 1010.0
05 11.06 ЮЗ 4 19 км 10/10
[]
+12.6 +10.7 88 +11 +11 1011.2 1010.7
06 11.06 ЮЗ 4-7
{8}
20 км 10/10 300 м
[]
+12.4 +10.5 88 +10 +10 1011.5 1011.1 +12.4
07 11.06 ЮЗ 2 13 км слаб. морось с дождем 10/10 300 м
[]
+12.2 +10.9 92 +11 +11 1011.9 1011.5 0.1
08 11.06 ЮЗ 3 15 км в посл. час дождь {ливн. осадки, морось} 10/10
[]
+13.0 +10.8 86 +12 +12 1011.8 1011.4
09 11.06 ЮЗ 4-7
{7}
25 км {ливн. осадки, морось} 10/10 360 м
[]
+15.1 +11.0 76 +14 +14 1011.8 1011.4
10 11.06 ЮЗ 3 29 км {ливн. осадки, морось} 9/9
[]
+16.8 +10.7 67 +17 +18 1011.8 1011.3
11 11.06 З 2 30 км {ливн. осадки, морось} 9/9 1000 м
[]
+18.4 +10.8 61 +19 +21 1012.2 1011.7
12 11.06 ЮЗ 3-5
{7}
35 км {ливн. осадки, морось} 10/10 930 м
[]
+17.5 +10.0 61 +18 +18 1012.4 1012.0
13 11.06 ЮЗ 3 40 км 10/10
[]
+18.6 +10.1 58 +19 +19 1012.1 1011.7
14 11.06 З 2 35 км 10/10
[]
+18.3 +9.4 56 +19 +19 1012.3 1011.9
15 11.06 ЮЗ 4-5
{7}
35 км 8/5 1200 м
[]
+18.6 +9.0 54 +19 +20 1012.2 1011.9
16 11.06 ЮЗ 2 45 км 8/8
[]
+19.2 +8.6 50 +21 +22 комфорт 1011.9 1011.6
17 11.06 З 3 35 км 9/9
[]
+19.1 +9.4 53 +20 +20 1012.0 1011.6
18 11.06 СЗ 2-4
{6}
45 км 10/4 1140 м
[]
+18.4 +10.1 58 +19 +19 1012.2 1011.9 +19.9
19 11.06 СЗ 2 45 км 10/10
[]
+16.9 +10.5 66 +17 +17 1012.2 1011.7
20 11.06 СЗ 2 45 км 10/10
[]
+15.4 +9.9 70 +15 +15 1012.6 1012.1
21 11.06 С 2-3
{4}
45 км 10/0
[]
+13.2 +10.4 83 +12 +12 1012.1 1011.8
22 11.06 СВ 1-2
{2}
45 км 10/10
[]
+13.0 +10.7 86 +13 +13 1012.1 1011.7
23 11.06 С 1-2
{2}
45 км 10/10 1500 м
[]
+13.7 +10.7 82 +14 +14 1011.6 1011.1
00 12.06 СВ 2-4
{4}
35 км 10/10 1500 м
[]
+13.8 +10.8 82 +13 +13 1011.9 1011.5
01 12.06 СВ 2-2
{3}
23 км 10/10 1500 м
[]
+13.5 +11.0 85 +13 +13 1011.5 1011.2
02 12.06 СВ 1-2
{2}
18 км 10/10 1500 м
[]
+13.4 +11.2 87 +14 +14 1011.2 1010.9
03 12.06 СВ 1-2
{3}
16 км слаб. морось 10/10 1500 м
[]
+13.3 +11.3 88 +13 +13 1010.8 1010.4
04 12.06 СВ 1 14 км слаб. морось {дождь} 10/10 1500 м
[]
+13.2 +11.7 91 +13 +13 1010.6 1010.3 0.1
05 12.06 В 1 17 км в посл. час дождь {ливн. осадки, морось} 10/10 1500 м
[]
+13.3 +11.3 88 +13 +13 1010.0 1009.6
06 12.06 СВ 2-3
{4}
14 км слаб. ливневой дождь {морось} 10/10 840 м
[]
+13.6 +11.0 84 +13 +13 1009.2 1008.9 +12.5 0.2
07 12.06 С 3 24 км в посл. час дождь {ливн. осадки} 10/10 1500 м
[]
+16.0 +12.2 78 +16 +16 1008.5 1008.2 0.1
08 12.06 С 3 24 км {ливн. осадки, дождь} 10/10 1000 м
[]
+16.0 +12.0 77 +16 +16 1008.5 1008.1
09 12.06 СВ 5-7
{7}
23 км {ливн. осадки, дождь} 10/10 1500 м
[]
+17.3 +12.6 74 +17 +17 1008.0 1007.5
10 12.06 С 4 24 км в посл. час дождь {ливн. осадки} 10/10 600 м
[]
+17.6 +12.5 72 +17 +17 1007.5 1007.1
11 12.06 З 3 2400 м ливневой дождь {гроза} 10/6 300 м
[]
+14.1 +12.5 90 +13 +16 1007.5 1007.0 7
12 12.06 СЗ 4-6
{9}
6000 м дождь {гроза, ливн. осадки} 10/10 420 м
[]
+13.5 +12.8 96 +12 +13 1007.7 1007.3 10
13 12.06 З 2 6000 м дождь 10/6 200 м
[]
+14.1 +13.8 98 +13 +17 1007.2 1006.8 4
14 12.06 ЮЗ 5 8000 м в посл. час дождь 10/10 100 м
[]
+13.7 +13.1 96 +12 +12 1007.6 1007.0 1
15 12.06 ЮЗ 4-7
{8}
25 км {дождь} 9/9 210 м
[]
+15.8 +13.8 88 +15 +16 1008.0 1007.6
16 12.06 ЮЗ 5 28 км {дождь} 10/6 300 м
[]
+15.2 +13.0 87 +14 +15 1007.9 1007.4
17 12.06 ЮЗ 4 21 км {дождь} 6/6 600 м
[]
+16.4 +13.0 80 +16 +17 1008.2 1007.7
18 12.06 ЮЗ 4-9
{9}
27 км 1/1 840 м
[]
+15.6 +11.8 78 +15 +16 1008.4 1007.9 +17.7
19 12.06 ЮЗ 4 35 км 3/3 1500 м
[]
+15.3 +11.4 78 +14 +14 1009.0 1008.6
20 12.06 ЮЗ 2 27 км ясно +13.7 +11.5 87 +13 +13 1009.2 1008.8
21 12.06 Ю 1-1
{4}
5000 м дымка ясно +11.2 +10.7 97 +11 +11 1009.5 1009.0
22 12.06 ЮВ 2-2
{2}
3400 м дымка ясно +10.4 +10.4 100 +9 +9 1009.5 1009.1
23 12.06 ЮВ 2-3
{3}
1600 м в посл. час туман {дымка} ясно +10.1 +10.0 99 +8 +8 1009.3 1009.0
00 13.06 Ю 3-4
{4}
19 км {туман, дымка} ясно +10.7 +10.2 97 +9 +9 1009.2 1008.8
01 13.06 ЮВ 2-4
{4}
30 км 8/8 1000 м
[]
+11.0 +10.1 94 +10 +10 1009.1 1008.7
02 13.06 Ю 3-4
{5}
45 км ясно +11.1 +9.4 89 +9 +9 1008.8 1008.5
03 13.06 Ю 4-6
{6}
45 км 10/0
[]
+11.2 +9.2 87 +9 +9 1008.8 1008.4
04 13.06 Ю 5 45 км 10/10
[]
+11.7 +9.7 88 +9 +9 1009.0 1008.6
05 13.06 Ю 6 45 км 10/10 300 м
[]
+12.4 +10.2 86 +10 +10 1009.3 1008.8
06 13.06 Ю 6-10
{10}
45 км 10/10 420 м
[]
+13.1 +10.1 82 +11 +11 1009.4 1009.0 +9.6
07 13.06 Ю 6 45 км 9/8 600 м
[]
+13.8 +9.8 77 +12 +12 1009.6 1009.2
08 13.06 Ю 7 45 км 10/10 600 м
[]
+14.6 +9.9 73 +13 +13 1010.1 1009.7
09 13.06 Ю 7-12
{12}
40 км 10/10 800 м
[]
+15.7 +9.7 67 +14 +14 1010.4 1010.0
10 13.06 Ю 8 45 км 10/8 1000 м
[]
+16.1 +9.2 64 +15 +15 1010.6 1010.1
11 13.06 Ю 7 40 км 10/10
[]
+17.3 +9.5 60 +16 +16 1010.6 1010.3
12 13.06 Ю 7-12
{13}
40 км 9/5 1140 м
[]
+17.8 +8.9 56 +17 +17 1010.6 1010.2
13 13.06 Ю 6 19 км слаб. морось с дождем 10/10 1500 м
[]
+16.1 +10.4 69 +15 +15 1011.0 1010.5
14 13.06 Ю 3 40 км слаб. морось с дождем 10/10 1500 м
[]
+15.6 +11.5 77 +15 +15 1011.0 1010.5 0.3
15 13.06 Ю 5-8
{9}
30 км в посл. час дождь {ливн. осадки} 10/10 1500 м
[]
+17.6 +11.5 67 +17 +17 1010.4 1010.1 0.1
16 13.06 Ю 6 40 км гроза без осадков {ливн. осадки} 9/9
[]
+16.8 +11.2 70 +16 +16 1010.4 1010.0
17 13.06 Ю 5 40 км в посл. час гроза без осадков {ливн. осадки} 4/4 1500 м
[]
+16.7 +11.5 71 +16 +17 1010.3 1009.9
18 13.06 Ю 5-9
{14}
40 км слаб. ливневой дождь {гроза} 9/9 1020 м
[]
+16.7 +11.1 70 +16 +16 1010.5 1010.1 +18.4 0.1
19 13.06 Ю 4 11 км ливневой дождь {гроза} 10/10 1500 м
[]
+13.2 +11.3 88 +11 +11 1011.3 1011.1 2
20 13.06 Ю 3 45 км в посл. час дождь {гроза, ливн. осадки} 10/10
[]
+12.5 +11.2 92 +11 +11 1012.0 1011.5
21 13.06 ЮВ 3-4
{5}
45 км {гроза, ливн. осадки} 9/9 2000 м
[]
+11.8 +10.9 94 +10 +10 1012.5 1012.1
22 13.06 Ю 2-3
{3}
45 км {гроза, ливн. осадки} 10/10
[]
+11.9 +11.0 94 +11 +11 1012.6 1012.2
23 13.06 Ю 3-5
{5}
45 км {гроза, ливн. осадки} 10/10
[]
+12.7 +11.4 92 +11 +11 1013.0 1012.5
00 14.06 ЮВ 3-4
{5}
45 км {гроза, ливн. осадки} 3/3 2000 м
[]
+12.3 +11.3 94 +11 +11 1013.0 1012.6
01 14.06 ЮВ 2-3
{3}
30 км ясно +11.4 +11.0 97 +10 +10 1012.9 1012.5
02 14.06 ЮВ 2-3
{3}
15 км ясно +10.5 +10.4 99 +9 +9 1012.5 1012.1
03 14.06 ЮВ 2-2
{3}
8000 м дымка 5/1 2000 м
[]
+10.4 +10.3 99 +9 +9 1012.6 1012.2
04 14.06 ЮВ 2 12 км 10/10
[]
+11.1 +10.8 98 +10 +10 1013.1 1012.7
05 14.06 ЮВ 1 11 км 10/10
[]
+12.0 +11.5 97 +12 +12 1013.2 1012.9
06 14.06 ЮВ 2-3
{3}
14 км 10/10
[]
+13.2 +12.3 94 +12 +12 1013.7 1013.2 +9.8
07 14.06 ЮВ 3 20 км 10/10
[]
+14.3 +12.9 91 +13 +13 1014.0 1013.7
08 14.06 Ю 3 11 км слаб. ливневой дождь 10/10 1500 м
[]
+14.8 +12.7 87 +14 +14 1014.8 1014.3 0.2
09 14.06 СВ 1-2
{6}
22 км в посл. час дождь {ливн. осадки, морось} 9/9
[]
+15.4 +13.8 90 +16 +17 1013.5 1013.0 0.5
10 14.06 ЮВ 3 30 км {ливн. осадки, морось} 8/8 2000 м
[]
+17.7 +14.3 80 +18 +20 1014.6 1014.3
11 14.06 Ю 5 35 км {ливн. осадки, морось} 1/1 600 м
[]
+19.4 +13.7 70 +21 +29 комфорт 1014.4 1013.9
12 14.06 Ю 6-9
{9}
35 км {ливн. осадки, морось} 3/3 960 м
[]
+20.4 +12.7 61 +22 +27 комфорт 1014.3 1013.9
13 14.06 Ю 5 30 км 8/6 1000 м
[]
+20.8 +13.3 62 +23 +26 комфорт 1014.3 1013.9
14 14.06 Ю 4 40 км 3/1 1000 м
[]
+22.1 +14.0 60 +25 +32 комфорт 1013.8 1013.5
15 14.06 Ю 4-6
{8}
40 км 5/5 1230 м
[]
+22.0 +12.9 56 +25 +28 комфорт 1013.5 1013.2
16 14.06 ЮЗ 3 35 км 5/5 1500 м
[]
+23.4 +13.1 52 +26 +29 жарко 1013.2 1012.7
17 14.06 ЮВ 2 35 км 8/8
[]
+22.8 +13.9 57 +26 +27 жарко 1013.1 1012.7
18 14.06 СЗ 3-5
{7}
40 км 9/8 1200 м
[]
+21.8 +14.8 64 +25 +25 комфорт 1013.1 1012.7 +23.9
19 14.06 С 4 40 км 10/10
[]
+19.3 +14.0 71 +21 +21 комфорт 1013.3 1012.9
20 14.06 С 3 45 км 10/10
[]
+17.8 +13.2 74 +18 +18 1013.6 1013.1
21 14.06 С 3-6
{6}
45 км 10/4 2000 м
[]
+16.8 +12.8 77 +17 +17 1013.6 1013.2
22 14.06 -6
{6}
45 км 10/10 1500 м
[]
+16.6 +12.6 77 1013.7 1013.4
23 14.06 С 3-5
{6}
45 км 10/10 2000 м
[]
+16.4 +12.5 78 +16 +16 1012.9 1012.6
00 15.06 С 3-5
{6}
45 км 10/10 1500 м
[]
+16.4 +11.9 75 +16 +16 1012.1 1011.7
01 15.06 С 3-5
{6}
40 км слаб. морось с дождем 10/10 1500 м
[]
+16.0 +12.6 80 +16 +16 1011.2 1010.8
02 15.06 С 3-4
{5}
29 км в посл. час дождь {ливн. осадки, морось} 10/10 1500 м
[]
+15.3 +13.7 90 +15 +15 1010.3 1010.1 0.1
03 15.06 СЗ 2-3
{5}
6000 м ливневой дождь {морось} 10/10 750 м
[]
+15.3 +14.5 95 +15 +15 1010.1 1009.7 0.9
04 15.06 СЗ 2 4500 м дождь {ливн. осадки, морось} 10/10 300 м
[]
+15.0 +14.5 97 +15 +15 1010.3 1009.9 1
05 15.06 З 2 4200 м дождь {ливн. осадки, морось} 10/10 300 м
[]
+14.5 +14.4 99 +14 +14 1010.7 1010.3 3
06 15.06 З 2-4
{4}
3300 м дождь {ливн. осадки, морось} 10/10 90 м
[]
+14.4 +14.1 98 +14 +14 1010.6 1010.2 +14.4 2
07 15.06 З 2 9000 м слаб. дождь 10/10 200 м
[]
+13.8 +13.5 98 +13 +13 1011.0 1010.6 3
08 15.06 СЗ 2 40 км в посл. час дождь {морось} 10/10 1500 м
[]
+15.1 +14.1 94 +15 +15 1011.1 1010.5
09 15.06 З 4-7
{7}
40 км {дождь, морось} 10/10 270 м
[]
+16.3 +14.4 89 +16 +16 1012.3 1011.7
10 15.06 З 3 40 км в посл. час дождь {ливн. осадки} 10/8 600 м
[]
+17.4 +14.0 80 +17 +19 1013.3 1012.8
11 15.06 З 3 30 км {ливн. осадки, дождь} 10/10 600 м
[]
+17.0 +14.1 83 +17 +17 1014.1 1013.5
12 15.06 З 2-4
{7}
35 км {ливн. осадки, дождь} 10/10 500 м
[]
+17.3 +13.6 79 +18 +21 1014.7 1014.2
13 15.06 З 3 45 км 10/10 600 м
[]
+17.4 +13.0 75 +17 +17 1015.0 1014.6
14 15.06 З 1 45 км 10/9 1000 м
[]
+17.7 +13.5 76 +19 +20 1015.3 1014.8
15 15.06 З 3-5
{5}
35 км 10/10 500 м
[]
+18.2 +13.5 74 +19 +19 1015.4 1015.0
16 15.06 ЮЗ 2 45 км 10/10 1000 м
[]
+18.7 +12.0 65 +20 +20 1015.4 1015.0
17 15.06 ЮЗ 2 45 км 4/4
[]
+18.5 +12.3 67 +20 +22 1015.5 1015.0
18 15.06 З 1-2
{5}
45 км 10/10 2000 м
[]
+17.9 +11.9 68 +19 +19 1015.7 1015.3 +19.7
19 15.06 штиль 0 45 км 10/10 2000 м
[]
+18.4 +12.4 68 +19 +19 1015.5 1015.1
20 15.06 Ю 1 45 км ясно +14.8 +13.2 90 +15 +15 1016.0 1015.6
21 15.06 штиль 0
{1}
13 км слаб. ливневой дождь ясно +12.9 +12.3 96 +12 +12 1016.4 1015.9
22 15.06 ЮВ 1-1
{1}
1200 м в посл. час дождь {ливн. осадки} ясно +12.0 +11.7 98 +12 +12 1016.7 1016.4
23 15.06 Ю 1-1
{2}
13 км в посл. час туман {ливн. осадки, дымка} 10/10 2000 м
[]
+12.2 +12.2 100 +12 +12 1017.0 1016.6
00 16.06 Ю 2-2
{3}
5000 м дымка {ливн. осадки, туман} 9/9 1500 м
[]
+12.7 +12.5 99 +12 +12 1017.2 1016.8
01 16.06 Ю 1-2
{2}
100 м туман {дымка} ясно +11.3 +11.3 100 +11 +11 1017.2 1016.9
02 16.06 Ю 2-3
{3}
1600 м в посл. час туман {дымка} 3/1 1000 м
[]
+11.2 +11.2 100 +10 +10 1017.1 1016.7
03 16.06 ЮВ 3-4
{4}
2100 м дымка {туман} 6/6 2000 м
[]
+12.5 +12.4 99 +11 +11 1017.3 1016.8
04 16.06 Ю 3 10 км {туман, дымка} 5/5 2000 м
[]
+13.9 +12.7 92 +13 +13 1017.5 1017.0
05 16.06 ЮЗ 2 12 км {туман, дымка} ясно +14.9 +13.1 89 +15 +16 1017.8 1017.4
06 16.06 ЮЗ 3-5
{6}
26 км {туман, дымка} ясно +16.4 +12.8 79 +16 +19 1018.0 1017.6 +11.2
07 16.06 ЮЗ 4 35 км 6/6 2000 м
[]
+17.0 +12.9 77 +17 +18 1018.4 1017.9
08 16.06 ЮЗ 4 30 км 5/5 600 м
[]
+17.7 +13.1 74 +17 +21 1018.7 1018.3
09 16.06 ЮЗ 3-5
{7}
35 км 9/9 630 м
[]
+18.2 +13.1 72 +19 +20 1019.0 1018.6
10 16.06 ЮЗ 6 35 км 9/8 1000 м
[]
+18.1 +12.6 70 +18 +19 1019.5 1019.0
11 16.06 ЮЗ 7 40 км 8/8 1000 м
[]
+19.1 +12.8 67 +20 +21 1019.7 1019.2
12 16.06 ЮЗ 5-10
{11}
35 км 10/10 900 м
[]
+19.6 +12.4 63 +21 +22 комфорт 1019.9 1019.5
13 16.06 З 4 35 км 10/10 2000 м
[]
+19.6 +12.9 65 +21 +21 комфорт 1020.1 1019.7
14 16.06 З 4 45 км 5/5 1000 м
[]
+20.2 +12.2 60 +22 +27 комфорт 1020.1 1019.7
15 16.06 ЮЗ 4-8
{8}
45 км 9/9 1110 м
[]
+20.2 +12.3 60 +22 +23 комфорт 1020.1 1019.7
16 16.06 ЮЗ 5 35 км 1/1 1000 м
[]
+20.8 +11.5 55 +23 +26 комфорт 1020.1 1019.7
17 16.06 ЮЗ 4 45 км 3/3 1000 м
[]
+21.3 +11.6 54 +23 +25 комфорт 1020.0 1019.6
18 16.06 Ю 4-7
{8}
45 км 8/8 1200 м
[]
+20.7 +11.9 57 +23 +23 комфорт 1020.1 1019.7 +21.6
19 16.06 ЮЗ 2 45 км 10/10
[]
+19.7 +12.2 62 +22 +22 комфорт 1020.2 1019.8
20 16.06 ЮЗ 3 45 км слаб. ливневой дождь 10/6 1000 м
[]
+19.4 +12.6 65 +21 +21 комфорт 1020.6 1020.1
21 16.06 З 2 45 км в посл. час дождь 3/3 1500 м
[]
+17.4 +12.6 73 +18 +18 1021.1 1020.7 0.1
22 16.06 З 1-1
{2}
40 км {ливн. осадки} ясно +14.1 +13.1 94 +14 +14 1021.0 1020.6
23 16.06 штиль 0-1
{2}
9000 м дымка {ливн. осадки} ясно +12.9 +12.6 98 +12 +12 1021.1 1020.7

 

Местоположение метеостанции Де Билт (Нидерланды): широта 52.10 долгота 5.18 высота над уровнем моря 4 м.

В архиве по умолчанию представлена погода в Де Билте за последнюю неделю. Архивные данные за месяц целиком и за предыдущие месяцы, начиная с января 2011 года, Вы можете получить, выбрав интересующий диапазон дат из раскрывающегося списка и нажав кнопку "Ввод!".


*Определитесь, кто Вы:
робот инопланетянин человек

Внимание! Время в таблицах - всемирное. Для получения местного времени необходимо прибавить поправку, которая равна 1 ч.

Смотрите также архив погоды в соседних городах и на ближайших метеорологических станциях:

Погода на Вышке Cabauw Tower (Нидерланды) (22 км)
Погода в Хервиньене (Нидерланды) (26 км)
Погода в Амстердаме (Нидерланды) (36 км)
Погода в Лелистаде (Нидерланды) (46 км)
Погода в Дилене (Нидерланды) (48 км)
Погода в Ворсхотене (Нидерланды) (51 км)
Погода в Валкенбурге (Нидерланды) (53 км)
Погода в Роттердам аэропорту (Нидерланды) (53 км)
Погода в Вейк-ан-Зе (Нидерланды) (57 км)
Погода в Эймёйдене (Нидерланды) (58 км)

Пояснения к столбцам:

Ветер - указаны скорость ветра в м/с - средняя за 10 мин, порывы в срок и между сроками (в фигурных скобках) и направление, откуда дует ветер: С - северный, СВ - северо-восточный, В - восточный, ЮВ - юго-восточный, Ю - южный, ЮЗ - юго-западный, З - западный, СЗ - северо-западный.
Видимость - горизонтальная дальность видимости в метрах или километрах. При видимости от 1 до 10 км при отсутствии осадков обычно наблюдается дымка, при ухудшении видимости до 1 км и менее - туман. В сухую погоду видимость может ухудшаться дымом, пылью или мглою.
Явления - указаны атмосферные явления, наблюдавшиеся в срок или в последний час перед сроком; фигурными скобками обозначены явления, наблюдавшиеся между сроками (за 1-3 часа до срока); квадратными скобками обозначены град или гололедные отложения с указанием их диаметра в мм.
Облачность - указаны через наклонную черту общая и нижняя облачность в баллах и высота нижней границы облаков в метрах; квадратными скобками обозначены формы облаков: Ci - перистые, Cs - перисто-слоистые, Cc - перисто-кучевые, Ac - высококучевые, As - высокослоистые, Sc - слоисто-кучевые, Ns - слоисто-дождевые, Cu - кучевые, Cb - кучево-дождевые. Подробнее классификацию облаков см. в Атласе облаков (PDF).
T - Температура воздуха - температура, измеренная на высоте 2 м над землей.
Td - Температура точки росы - температура, при понижении до которой содержащийся в воздухе водяной пар достигнет насыщения.
f - Относительная влажность воздуха - влажноcть воздуха, измеренная на высоте 2 м над землей.
Te - Эффективная температура - температура, которую ощущает одетый по сезону человек в тени. Характеристика душности погоды. При расчете учитывается влияние влажности воздуха и скорости ветра на теплоощущения человека.
Tes - Эффективная температура на солнце - температура, которую ощущает человек, с поправкой на солнечный нагрев. Характеристика знойности погоды. Зависит от высоты солнца над горизонтом, облачности и скорости ветра. Ночью, в пасмурную погоду, а также при ветре 12 м/с и более поправка равна нулю.
P - Атмосферное давление - приведенное к уровню моря атмосферное давление.
Po - Атмосферное давление - измеренное на уровне метеостанции атмосферное давление.
Tmin - Минимальная температура - минимум температуры воздуха на высоте 2 м над землей.
Tmax - Максимальная температура - максимум температуры воздуха на высоте 2 м над землей.
R - Количество осадков - Количество выпавших осадков за период времени, мм. При наведении курсора мыши на число - период времени, за который выпало указанное количество осадков.
R24 - Количество осадков - Количество выпавших осадков за 24 часа, мм.
S - Снежный покров - Высота снежного покрова, см. При наведении курсора мыши на число - состояние снежного покрова и степень покрытия местности в баллах.